Time,TemperatureF,DewpointF,PressureIn,WindDirection,WindDirectionDegrees,WindSpeedMPH,WindSpeedGustMPH,Humidity,HourlyPrecipIn,Conditions,Clouds,dailyrainin,SoftwareType,DateUTC
2013-02-21 00:06:00,20.2,19.0,29.68,South,179,0.0,-999.0,93,-99.99,,,0.00,weatherlink.com 1.10,2013-02-21 05:06:00,
2013-02-21 00:21:00,20.2,19.0,29.69,South,179,0.0,-999.0,93,-99.99,,,0.00,weatherlink.com 1.10,2013-02-21 05:21:00,
2013-02-21 00:36:00,20.4,19.0,29.70,WSW,241,0.0,-999.0,93,-99.99,,,0.00,weatherlink.com 1.10,2013-02-21 05:36:00,
2013-02-21 00:51:00,19.8,18.0,29.70,SW,234,0.0,-999.0,91,-99.99,,,0.00,weatherlink.com 1.10,2013-02-21 05:51:00,
2013-02-21 01:06:00,19.3,17.0,29.70,NNW,346,1.0,-999.0,91,-99.99,,,0.00,weatherlink.com 1.10,2013-02-21 06:06:00,
2013-02-21 01:21:00,18.9,17.0,29.71,West,274,0.0,-999.0,91,-99.99,,,0.00,weatherlink.com 1.10,2013-02-21 06:21:00,
2013-02-21 01:36:00,18.4,16.0,29.72,WNW,299,0.0,-999.0,90,-99.99,,,0.00,weatherlink.com 1.10,2013-02-21 06:36:00,
2013-02-21 01:51:00,17.6,15.0,29.72,West,273,0.0,-999.0,89,-99.99,,,0.00,weatherlink.com 1.10,2013-02-21 06:51:00,
2013-02-21 02:07:00,17.1,15.0,29.73,West,273,0.0,-999.0,90,-99.99,,,0.00,weatherlink.com 1.10,2013-02-21 07:07:00,
2013-02-21 02:21:00,16.0,13.0,29.73,NNW,336,0.0,-999.0,89,-99.99,,,0.00,weatherlink.com 1.10,2013-02-21 07:21:00,
2013-02-21 02:36:00,14.9,12.0,29.73,NNW,341,0.0,-999.0,88,-99.99,,,0.00,weatherlink.com 1.10,2013-02-21 07:36:00,
2013-02-21 02:51:00,14.2,11.0,29.73,North,355,1.0,-999.0,88,-99.99,,,0.00,weatherlink.com 1.10,2013-02-21 07:51:00,
2013-02-21 03:06:00,13.6,11.0,29.73,WNW,302,0.0,-999.0,87,-99.99,,,0.00,weatherlink.com 1.10,2013-02-21 08:06:00,
2013-02-21 03:21:00,13.0,10.0,29.73,NW,308,0.0,-999.0,86,-99.99,,,0.00,weatherlink.com 1.10,2013-02-21 08:21:00,
2013-02-21 03:36:00,12.4,9.0,29.74,NNE,27,1.0,-999.0,86,-99.99,,,0.00,weatherlink.com 1.10,2013-02-21 08:36:00,
2013-02-21 03:52:00,11.9,9.0,29.74,NE,37,0.0,-999.0,86,-99.99,,,0.00,weatherlink.com 1.10,2013-02-21 08:52:00,
2013-02-21 04:07:00,11.6,9.0,29.75,NNW,344,0.0,-999.0,87,-99.99,,,0.00,weatherlink.com 1.10,2013-02-21 09:07:00,
2013-02-21 04:22:00,11.3,8.0,29.76,NNW,344,0.0,-999.0,87,-99.99,,,0.00,weatherlink.com 1.10,2013-02-21 09:22:00,
2013-02-21 04:37:00,11.2,8.0,29.76,NNW,344,0.0,-999.0,87,-99.99,,,0.00,weatherlink.com 1.10,2013-02-21 09:37:00,
2013-02-21 04:52:00,11.0,8.0,29.77,NNW,344,0.0,-999.0,86,-99.99,,,0.00,weatherlink.com 1.10,2013-02-21 09:52:00,
2013-02-21 05:07:00,11.1,8.0,29.78,NNW,344,0.0,-999.0,86,-99.99,,,0.00,weatherlink.com 1.10,2013-02-21 10:07:00,
2013-02-21 05:22:00,10.7,7.0,29.78,NNW,344,0.0,-999.0,85,-99.99,,,0.00,weatherlink.com 1.10,2013-02-21 10:22:00,
2013-02-21 05:37:00,10.6,7.0,29.79,NNW,344,0.0,-999.0,85,-99.99,,,0.00,weatherlink.com 1.10,2013-02-21 10:37:00,
2013-02-21 05:52:00,10.7,7.0,29.79,NNW,344,0.0,-999.0,86,-99.99,,,0.00,weatherlink.com 1.10,2013-02-21 10:52:00,
2013-02-21 06:07:00,10.7,7.0,29.80,NNW,344,0.0,-999.0,86,-99.99,,,0.00,weatherlink.com 1.10,2013-02-21 11:07:00,
2013-02-21 06:22:00,10.4,7.0,29.81,NNW,344,0.0,-999.0,86,-99.99,,,0.00,weatherlink.com 1.10,2013-02-21 11:22:00,
2013-02-21 06:37:00,10.3,7.0,29.81,NNW,344,0.0,-999.0,87,-99.99,,,0.00,weatherlink.com 1.10,2013-02-21 11:37:00,
2013-02-21 06:52:00,10.1,7.0,29.82,NNW,344,0.0,-999.0,86,-99.99,,,0.00,weatherlink.com 1.10,2013-02-21 11:52:00,
2013-02-21 07:07:00,10.0,7.0,29.83,NNW,344,0.0,-999.0,87,-99.99,,,0.00,weatherlink.com 1.10,2013-02-21 12:07:00,
2013-02-21 07:22:00,9.8,7.0,29.84,WNW,298,0.0,-999.0,87,-99.99,,,0.00,weatherlink.com 1.10,2013-02-21 12:22:00,
2013-02-21 07:37:00,9.5,6.0,29.85,West,269,0.0,-999.0,84,-99.99,,,0.00,weatherlink.com 1.10,2013-02-21 12:37:00,
2013-02-21 07:52:00,9.3,6.0,29.86,NNE,21,0.0,-999.0,85,-99.99,,,0.00,weatherlink.com 1.10,2013-02-21 12:52:00,
2013-02-21 08:07:00,9.4,6.0,29.86,NW,308,0.0,-999.0,85,-99.99,,,0.00,weatherlink.com 1.10,2013-02-21 13:07:00,
2013-02-21 08:22:00,9.5,6.0,29.87,WNW,288,0.0,-999.0,85,-99.99,,,0.00,weatherlink.com 1.10,2013-02-21 13:22:00,
2013-02-21 08:37:00,9.6,6.0,29.87,NW,317,0.0,-999.0,84,-99.99,,,0.00,weatherlink.com 1.10,2013-02-21 13:37:00,
2013-02-21 08:53:00,9.4,6.0,29.88,NNW,339,1.0,-999.0,84,-99.99,,,0.00,weatherlink.com 1.10,2013-02-21 13:53:00,
2013-02-21 09:07:00,9.2,5.0,29.88,NW,306,1.0,-999.0,83,-99.99,,,0.00,weatherlink.com 1.10,2013-02-21 14:07:00,
2013-02-21 09:23:00,9.5,5.0,29.88,West,277,0.0,-999.0,83,-99.99,,,0.00,weatherlink.com 1.10,2013-02-21 14:23:00,
2013-02-21 09:38:00,9.9,6.0,29.89,West,266,0.0,-999.0,85,-99.99,,,0.00,weatherlink.com 1.10,2013-02-21 14:38:00,
2013-02-21 09:52:00,10.3,6.0,29.89,West,278,0.0,-999.0,84,-99.99,,,0.00,weatherlink.com 1.10,2013-02-21 14:52:00,
2013-02-21 10:07:00,10.2,6.0,29.89,NNE,30,0.0,-999.0,84,-99.99,,,0.00,weatherlink.com 1.10,2013-02-21 15:07:00,
2013-02-21 11:25:00,13.1,8.0,29.91,North,360,0.0,-999.0,79,-99.99,,,0.00,weatherlink.com 1.10,2013-02-21 16:25:00,
2013-02-21 11:37:00,13.3,8.0,29.92,WSW,250,1.0,-999.0,79,-99.99,,,0.00,weatherlink.com 1.10,2013-02-21 16:37:00,
2013-02-21 11:52:00,13.6,9.0,29.92,North,355,0.0,-999.0,80,-99.99,,,0.00,weatherlink.com 1.10,2013-02-21 16:52:00,
2013-02-21 12:07:00,14.0,9.0,29.92,NW,323,0.0,-999.0,80,-99.99,,,0.00,weatherlink.com 1.10,2013-02-21 17:07:00,
2013-02-21 12:22:00,14.6,9.0,29.92,West,267,0.0,-999.0,79,-99.99,,,0.00,weatherlink.com 1.10,2013-02-21 17:22:00,
2013-02-21 12:37:00,15.5,10.0,29.93,NW,314,1.0,-999.0,79,-99.99,,,0.00,weatherlink.com 1.10,2013-02-21 17:37:00,
2013-02-21 12:52:00,15.8,10.0,29.93,WNW,284,0.0,-999.0,79,-99.99,,,0.00,weatherlink.com 1.10,2013-02-21 17:52:00,
2013-02-21 13:07:00,15.8,11.0,29.93,West,267,0.0,-999.0,81,-99.99,,,0.00,weatherlink.com 1.10,2013-02-21 18:07:00,
2013-02-21 13:22:00,16.1,11.0,29.94,NW,309,1.0,-999.0,79,-99.99,,,0.00,weatherlink.com 1.10,2013-02-21 18:22:00,
2013-02-21 13:37:00,16.2,11.0,29.94,West,277,0.0,-999.0,80,-99.99,,,0.00,weatherlink.com 1.10,2013-02-21 18:37:00,
2013-02-21 13:53:00,16.4,11.0,29.95,West,277,0.0,-999.0,79,-99.99,,,0.00,weatherlink.com 1.10,2013-02-21 18:53:00,
2013-02-21 14:08:00,16.7,12.0,29.96,NNW,332,0.0,-999.0,81,-99.99,,,0.00,weatherlink.com 1.10,2013-02-21 19:08:00,
2013-02-21 14:23:00,16.7,12.0,29.97,West,265,0.0,-999.0,80,-99.99,,,0.00,weatherlink.com 1.10,2013-02-21 19:23:00,
2013-02-21 14:38:00,16.8,11.0,29.98,WNW,296,1.0,-999.0,79,-99.99,,,0.00,weatherlink.com 1.10,2013-02-21 19:38:00,
2013-02-21 14:53:00,17.0,12.0,29.99,NNW,336,1.0,-999.0,81,-99.99,,,0.00,weatherlink.com 1.10,2013-02-21 19:53:00,
2013-02-21 15:08:00,16.8,12.0,30.00,NW,320,0.0,-999.0,82,-99.99,,,0.00,weatherlink.com 1.10,2013-02-21 20:08:00,
2013-02-21 15:23:00,16.9,13.0,30.01,WNW,296,0.0,-999.0,83,-99.99,,,0.00,weatherlink.com 1.10,2013-02-21 20:23:00,
2013-02-21 15:38:00,17.0,13.0,30.02,NNW,342,0.0,-999.0,85,-99.99,,,0.00,weatherlink.com 1.10,2013-02-21 20:38:00,
2013-02-21 15:53:00,16.8,13.0,30.02,NNW,338,0.0,-999.0,86,-99.99,,,0.00,weatherlink.com 1.10,2013-02-21 20:53:00,
2013-02-21 16:08:00,16.7,14.0,30.03,NNW,345,0.0,-999.0,87,-99.99,,,0.00,weatherlink.com 1.10,2013-02-21 21:08:00,
2013-02-21 16:23:00,16.7,13.0,30.05,NNE,15,0.0,-999.0,86,-99.99,,,0.00,weatherlink.com 1.10,2013-02-21 21:23:00,
2013-02-21 16:38:00,16.7,14.0,30.06,NW,310,0.0,-999.0,87,-99.99,,,0.00,weatherlink.com 1.10,2013-02-21 21:38:00,
2013-02-21 16:53:00,16.6,13.0,30.07,NW,311,0.0,-999.0,87,-99.99,,,0.00,weatherlink.com 1.10,2013-02-21 21:53:00,
2013-02-21 17:08:00,16.4,13.0,30.08,NE,42,0.0,-999.0,87,-99.99,,,0.00,weatherlink.com 1.10,2013-02-21 22:08:00,
2013-02-21 17:23:00,16.4,13.0,30.09,NNE,24,0.0,-999.0,87,-99.99,,,0.00,weatherlink.com 1.10,2013-02-21 22:23:00,
2013-02-21 17:38:00,16.3,13.0,30.11,NNE,24,0.0,-999.0,88,-99.99,,,0.00,weatherlink.com 1.10,2013-02-21 22:38:00,
2013-02-21 17:53:00,16.4,13.0,30.12,WNW,294,0.0,-999.0,87,-99.99,,,0.00,weatherlink.com 1.10,2013-02-21 22:53:00,
2013-02-21 18:09:00,16.6,13.0,30.14,WSW,244,0.0,-999.0,87,-99.99,,,0.00,weatherlink.com 1.10,2013-02-21 23:09:00,
2013-02-21 18:24:00,16.6,13.0,30.14,WSW,248,0.0,-999.0,87,-99.99,,,0.00,weatherlink.com 1.10,2013-02-21 23:24:00,
2013-02-21 18:38:00,16.7,14.0,30.15,WSW,248,0.0,-999.0,87,-99.99,,,0.00,weatherlink.com 1.10,2013-02-21 23:38:00,
2013-02-21 18:53:00,16.6,14.0,30.16,WSW,248,0.0,-999.0,88,-99.99,,,0.00,weatherlink.com 1.10,2013-02-21 23:53:00,
2013-02-21 19:09:00,16.4,14.0,30.17,WSW,248,0.0,-999.0,88,-99.99,,,0.00,weatherlink.com 1.10,2013-02-22 00:09:00,
2013-02-21 19:23:00,16.4,14.0,30.18,WSW,248,0.0,-999.0,88,-99.99,,,0.00,weatherlink.com 1.10,2013-02-22 00:23:00,
2013-02-21 19:38:00,16.6,14.0,30.19,WSW,248,0.0,-999.0,89,-99.99,,,0.00,weatherlink.com 1.10,2013-02-22 00:38:00,
2013-02-21 19:54:00,16.8,14.0,30.19,WSW,248,0.0,-999.0,89,-99.99,,,0.00,weatherlink.com 1.10,2013-02-22 00:54:00,
2013-02-21 20:08:00,16.8,14.0,30.20,WSW,248,0.0,-999.0,89,-99.99,,,0.00,weatherlink.com 1.10,2013-02-22 01:08:00,
2013-02-21 20:39:00,17.1,14.0,30.20,WSW,248,0.0,-999.0,89,-99.99,,,0.00,weatherlink.com 1.10,2013-02-22 01:39:00,
2013-02-21 20:54:00,17.2,15.0,30.20,WSW,248,0.0,-999.0,90,-99.99,,,0.00,weatherlink.com 1.10,2013-02-22 01:54:00,
2013-02-21 21:09:00,17.3,15.0,30.21,WSW,248,0.0,-999.0,90,-99.99,,,0.00,weatherlink.com 1.10,2013-02-22 02:09:00,
2013-02-21 21:24:00,17.3,15.0,30.22,WSW,248,0.0,-999.0,90,-99.99,,,0.00,weatherlink.com 1.10,2013-02-22 02:24:00,
2013-02-21 21:39:00,17.2,15.0,30.22,WSW,248,0.0,-999.0,90,-99.99,,,0.00,weatherlink.com 1.10,2013-02-22 02:39:00,
2013-02-21 21:54:00,17.3,15.0,30.21,WSW,248,0.0,-999.0,90,-99.99,,,0.00,weatherlink.com 1.10,2013-02-22 02:54:00,
2013-02-21 22:09:00,17.3,15.0,30.22,WSW,248,0.0,-999.0,90,-99.99,,,0.00,weatherlink.com 1.10,2013-02-22 03:09:00,
2013-02-21 22:24:00,17.4,15.0,30.23,WSW,248,0.0,-999.0,91,-99.99,,,0.00,weatherlink.com 1.10,2013-02-22 03:24:00,
2013-02-21 22:39:00,17.6,16.0,30.24,WSW,248,0.0,-999.0,91,-99.99,,,0.00,weatherlink.com 1.10,2013-02-22 03:39:00,
2013-02-21 22:54:00,17.9,16.0,30.25,WSW,248,0.0,-999.0,91,-99.99,,,0.00,weatherlink.com 1.10,2013-02-22 03:54:00,
2013-02-21 23:09:00,18.0,16.0,30.28,WSW,248,0.0,-999.0,91,-99.99,,,0.00,weatherlink.com 1.10,2013-02-22 04:09:00,
2013-02-21 23:24:00,18.2,16.0,30.28,WSW,248,0.0,-999.0,91,-99.99,,,0.00,weatherlink.com 1.10,2013-02-22 04:24:00,
2013-02-21 23:39:00,18.5,17.0,30.28,WSW,248,0.0,-999.0,92,-99.99,,,0.00,weatherlink.com 1.10,2013-02-22 04:39:00,
2013-02-21 23:54:00,18.6,17.0,30.30,WSW,248,0.0,-999.0,92,-99.99,,,0.00,weatherlink.com 1.10,2013-02-22 04:54:00,